CDT,Max TemperatureF,Mean TemperatureF,Min TemperatureF,Max Dew PointF,MeanDew PointF,Min DewpointF,Max Humidity, Mean Humidity, Min Humidity, Max Sea Level PressureIn, Mean Sea Level PressureIn, Min Sea Level PressureIn, Max VisibilityMiles, Mean VisibilityMiles, Min VisibilityMiles, Max Wind SpeedMPH, Mean Wind SpeedMPH, Max Gust SpeedMPH,PrecipitationIn, CloudCover, Events, WindDirDegrees
2013-5-1,64,53,42,50,42,34,76,62,45,30.25,30.08,29.85,10,10,10,26,14,37,0.00,4,,4
2013-5-2,42,38,33,37,33,32,93,89,70,30.38,30.32,30.23,10,5,0,29,20,38,0.15,8,Rain-Snow,357
2013-5-3,33,32,32,32,31,30,100,91,87,30.29,30.08,29.90,10,5,0,22,16,32,0.20,8,Rain-Snow,354
2013-5-4,53,43,33,52,43,32,100,96,93,30.05,29.94,29.84,10,3,0,18,11,22,0.15,8,Fog-Rain,325
2013-5-5,62,52,42,55,48,43,100,92,77,30.10,30.06,30.03,10,4,0,15,9,18,0.02,7,Fog-Rain,320
2013-5-6,73,60,46,54,48,43,100,71,33,30.10,30.05,30.00,10,8,2,14,9,20,0.00,2,,321
2013-5-7,77,64,50,50,46,43,94,56,31,30.07,30.02,29.98,10,10,6,9,4,12,0.00,1,,288
2013-5-8,71,63,55,59,53,45,88,68,50,30.02,29.98,29.93,10,9,1,12,6,17,0.00,3,Rain,172
2013-5-9,68,62,57,59,57,54,100,84,64,29.93,29.88,29.83,10,10,3,16,7,23,0.01,7,Rain,277
2013-5-10,64,57,50,54,49,46,94,80,56,30.03,29.98,29.89,10,9,3,18,12,24,0.00,6,Rain,346
2013-5-11,57,50,42,48,32,18,94,50,24,30.20,30.10,29.96,10,10,10,32,15,43,0.00,1,,314
2013-5-12,59,46,33,30,24,19,70,42,22,30.26,30.20,30.13,10,10,10,18,8,22,0.00,0,,298
2013-5-13,73,57,41,48,38,25,63,47,31,30.15,30.05,29.87,10,10,8,18,9,28,0.00,1,,198
2013-5-14,91,76,60,64,56,48,77,51,31,29.87,29.75,29.64,10,10,10,25,12,36,0.00,0,,214
2013-5-15,78,71,64,52,45,41,60,39,26,29.92,29.85,29.77,10,10,9,14,8,18,0.00,1,,45
2013-5-16,78,68,59,64,58,45,88,68,43,29.93,29.87,29.82,10,10,6,18,7,18,0.05,4,Rain,133
2013-5-17,77,68,60,63,60,59,94,75,57,29.95,29.91,29.86,10,10,3,13,7,17,0.00,1,,168
2013-5-18,82,71,60,64,62,59,94,71,51,29.96,29.90,29.79,10,10,6,16,7,21,0.00,2,,142
2013-5-19,86,73,60,66,63,59,94,71,40,29.82,29.70,29.56,10,9,1,24,13,34,0.64,4,Rain,158
2013-5-20,78,69,60,64,59,55,94,73,47,29.69,29.63,29.56,10,10,2,22,13,41,0.11,2,Rain,192
2013-5-21,71,63,55,61,54,48,94,70,49,29.70,29.66,29.59,10,10,10,21,11,28,0.00,3,,233
2013-5-22,62,58,53,57,51,48,94,80,72,29.87,29.74,29.66,10,10,3,23,10,25,0.00,7,,263
2013-5-23,69,61,53,52,48,41,94,66,35,30.26,30.09,29.88,10,10,2,16,12,23,0.00,4,Rain,9
2013-5-24,68,58,48,50,45,41,82,61,43,30.38,30.29,30.19,10,10,9,18,9,23,0.01,2,Rain,124
2013-5-25,57,54,50,54,50,45,100,85,63,30.28,30.18,30.13,10,9,1,21,11,30,1.29,8,Rain,119
2013-5-26,64,58,51,61,53,48,100,88,77,30.15,30.06,29.90,10,9,0,24,13,38,0.55,8,Rain,112
2013-5-27,71,65,59,64,61,57,100,87,69,30.01,29.84,29.69,10,6,0,21,8,31,0.43,6,Fog-Rain,133
2013-5-28,75,68,62,70,65,59,100,91,78,29.81,29.71,29.60,10,8,3,22,6,32,0.38,6,Rain,178
2013-5-29,80,71,62,72,66,59,94,80,70,29.83,29.76,29.68,10,10,7,21,12,28,0.01,5,Rain,171
2013-5-30,73,68,62,64,61,59,94,78,64,29.71,29.67,29.58,10,10,3,26,16,33,0.12,3,Rain,182
2013-5-31,75,68,62,64,61,59,94,82,64,29.75,29.70,29.65,10,10,7,23,12,30,0.00,4,,185